Location: Forshaga
(59.5328°N, 13.4805°E)
Time: 09:33:54
(UTC+01:00)

ISS - Visible Passes

Search period start: 26 November 2022 00:00
Search period end: 06 December 2022 00:00
Orbit: 411 x 421 km, 51.6° (Epoch: 26 November)

Date Brightness Start Highest point End Pass type
(mag) Time Alt. Az. Time Alt. Az. Time Alt. Az.
26 Nov -1.5 17:05:49 10° SSW 17:08:02 17° SSE 17:10:10 10° ESE visible
26 Nov -1.4 18:41:26 10° SW 18:43:03 19° SSW 18:43:03 19° SSW visible
27 Nov -1.2 16:17:46 10° SSW 16:19:39 14° SSE 16:21:33 10° ESE visible
27 Nov -1.9 17:53:00 10° SW 17:55:36 21° S 17:56:21 20° SSE visible
28 Nov -1.7 17:04:36 10° SW 17:07:09 20° S 17:09:39 10° ESE visible
28 Nov -1.4 18:40:45 10° WSW 18:42:32 18° SSW 18:42:32 18° SSW visible
29 Nov -1.5 16:16:16 10° SW 16:18:41 19° SSE 16:21:07 10° ESE visible
29 Nov -1.7 17:52:09 10° WSW 17:54:42 20° S 17:55:51 17° SSE visible
30 Nov -1.6 17:03:36 10° SW 17:06:13 21° S 17:08:48 10° SE visible
30 Nov -1.1 18:40:16 10° WSW 18:42:05 14° SSW 18:42:05 14° SSW visible
01 Dec -1.5 16:15:05 10° SW 16:17:41 21° S 16:20:18 10° SE visible
01 Dec -1.2 17:51:26 10° WSW 17:53:40 17° SSW 17:55:29 12° SSE visible
02 Dec -1.3 17:02:43 10° WSW 17:05:09 19° SSW 17:07:36 10° SE visible
03 Dec -1.3 16:14:02 10° WSW 16:16:37 21° S 16:19:10 10° SE visible
03 Dec -0.8 17:51:07 10° SW 17:52:29 12° SSW 17:53:51 10° S visible
04 Dec -0.9 17:02:01 10° WSW 17:03:58 15° SSW 17:05:56 10° SSE visible
05 Dec -0.9 16:13:07 10° WSW 16:15:25 17° SSW 16:17:42 10° SSE visible
